This is the latest recevied weather packets stored in our database for station/object PY2KO-3. If no packets are shown the sender has not sent any weather packets the latest 10 day(s).
| Time | Temp. | Humidity | Pressure | Rain* | Wind** | Luminosity | Snow |
|---|---|---|---|---|---|---|---|
| 1777719853 | 20.56° C | 90% | 1021.9 hPa | - | - | - | - |
| 1777718953 | 20° C | 91% | 1021.9 hPa | - | - | - | - |
| 1777718050 | 20° C | 89% | 1021.7 hPa | - | - | - | - |
| 1777717151 | 19.44° C | 88% | 1021.8 hPa | - | - | - | - |
| 1777716250 | 18.89° C | 89% | 1021.6 hPa | - | - | - | - |
| 1777715353 | 18.89° C | 91% | 1021.3 hPa | - | - | - | - |
| 1777714455 | 18.33° C | 90% | 1021.3 hPa | - | - | - | - |
| 1777713550 | 18.33° C | 90% | 1021 hPa | - | - | - | - |
| 1777712650 | 18.89° C | 91% | 1020.7 hPa | - | - | - | - |
| 1777711751 | 18.89° C | 91% | 1020.5 hPa | - | - | - | - |
| 1777710850 | 18.89° C | 91% | 1020.2 hPa | - | - | - | - |
| 1777709950 | 18.89° C | 90% | 1020 hPa | - | - | - | - |
| 1777709050 | 18.89° C | 91% | 1019.5 hPa | - | - | - | - |
| 1777708151 | 18.89° C | 90% | 1019.6 hPa | - | - | - | - |
| 1777707251 | 19.44° C | 91% | 1019.6 hPa | - | - | - | - |
| 1777706349 | 19.44° C | 91% | 1019.6 hPa | - | - | - | - |
| 1777705451 | 20° C | 91% | 1019.4 hPa | - | - | - | - |
| 1777704550 | 20° C | 91% | 1019.2 hPa | - | - | - | - |
| 1777703651 | 20° C | 92% | 1019.1 hPa | - | - | - | - |
| 1777702751 | 20.56° C | 92% | 1019.1 hPa | - | - | - | - |
| 1777701851 | 20.56° C | 91% | 1019.1 hPa | - | - | - | - |
| 1777700951 | 20.56° C | 91% | 1019.2 hPa | - | - | - | - |
| 1777700051 | 20.56° C | 91% | 1019.3 hPa | - | - | - | - |
| 1777699151 | 20° C | 92% | 1019.4 hPa | - | - | - | - |
| 1777698250 | 20° C | 92% | 1019.5 hPa | - | - | - | - |
* Rain since midnight (hover to see other rain measurements)
** Current wind speed in m/s (hover to see current wind gust speed)